Weather History for Beaufort MCAS, SC

Change the Weather History Date:

Saturday, April 19, 2014

  Actual Average Record
Temperature  
Mean Temperature 58 °F -  
Max Temperature 63 °F 77 °F 90 °F (1937)
Min Temperature 54 °F 56 °F 36 °F (1983)
Degree Days  
Heating Degree Days 6    
Growing Degree Days 8 (Base 50)    
Moisture  
Dew Point 56 °F    
Average Humidity 90    
Maximum Humidity 96    
Minimum Humidity 83    
Precipitation  
Precipitation 0.06 in - - ()
Sea Level Pressure  
Sea Level Pressure 29.98 in    
Wind  
Wind Speed 11 mph (ENE)    
Max Wind Speed 16 mph    
Max Gust Speed 24 mph    
Visibility 6 miles    
Events Rain , Thunderstorm    
Averages and records for this station are not official NWS values.
T = Trace of Precipitation, MM = Missing Value Source: NWS Daily Summary

Daily Weather History Graph

Daily Weather History Graph

Search for Another Location

Airport:

Trip Planner

Search our weather history database for the weather conditions in past years. The results will help you decide how hot, cold, wet, or windy it might be!

Date:

Astronomy

Apr. 19, 2014 Rise Set
Actual Time 6:48 AM EDT 7:55 PM EDT
Civil Twilight 6:23 AM EDT 8:21 PM EDT
Nautical Twilight 5:53 AM EDT 8:51 PM EDT
Astronomical Twilight 5:22 AM EDT 9:22 PM EDT
Moon No Moon Rise 10:13 AM EDT (4/19)
Length of Visible Light 13h 57m
Length of Day
13h 06m
Waning Gibbous, 79% of the Moon is Illuminated
Apr 19
Waning Gibbous
Apr 22
Last Quarter
Apr 29
New
May 6
First Quarter
May 14
Full

Hourly Weather History & Observations

Time (EDT) Temp. Dew Point Humidity Pressure Visibility Wind Dir Wind Speed Gust Speed Precip Events Conditions
12:56 AM 60.1 °F 57.0 °F 90% 29.97 in 10.0 mi East 10.4 mph 18.4 mph N/A   Overcast
1:56 AM 60.1 °F 57.9 °F 93% 29.95 in 4.0 mi ESE 10.4 mph - 0.02 in Rain Rain
2:56 AM 60.1 °F 57.9 °F 93% 29.93 in 10.0 mi ENE 10.4 mph - 0.01 in   Overcast
3:43 AM 60.1 °F 57.9 °F 93% 29.92 in 3.0 mi East 9.2 mph - N/A   Overcast
3:56 AM 60.1 °F 57.9 °F 93% 29.92 in 2.5 mi East 9.2 mph - N/A   Overcast
4:07 AM 60.1 °F 57.9 °F 93% 29.92 in 3.0 mi East 9.2 mph - N/A   Overcast
4:56 AM 59.0 °F 57.9 °F 96% 29.93 in 4.0 mi NE 8.1 mph - 0.01 in   Overcast
5:13 AM 59.0 °F 57.0 °F 93% 29.92 in 2.5 mi ENE 9.2 mph - N/A   Overcast
5:56 AM 57.9 °F 55.9 °F 93% 29.93 in 2.5 mi NE 10.4 mph - 0.00 in Rain Light Rain
6:18 AM 57.9 °F 55.9 °F 93% 29.93 in 3.0 mi ENE 10.4 mph - 0.01 in Rain Light Rain
6:56 AM 57.9 °F 55.9 °F 93% 29.94 in 5.0 mi NE 11.5 mph - 0.01 in   Overcast
7:25 AM 57.9 °F 55.9 °F 93% 29.94 in 6.0 mi ENE 12.7 mph - N/A   Overcast
7:56 AM 57.9 °F 55.9 °F 93% 29.95 in 8.0 mi ENE 12.7 mph - N/A   Overcast
8:28 AM 57.9 °F 55.9 °F 93% 29.95 in 8.0 mi ENE 11.5 mph - N/A   Overcast
8:56 AM 59.0 °F 55.9 °F 90% 29.96 in 6.0 mi NE 10.4 mph - N/A   Overcast
9:32 AM 59.0 °F 55.9 °F 90% 29.96 in 1.8 mi ENE 10.4 mph - N/A   Overcast
9:41 AM 59.0 °F 57.0 °F 93% 29.96 in 1.5 mi NE 8.1 mph - N/A   Overcast
9:56 AM 59.0 °F 55.9 °F 90% 29.96 in 1.5 mi ENE 11.5 mph - 0.00 in Rain Light Rain
10:12 AM 60.1 °F 57.0 °F 90% 29.96 in 1.8 mi ENE 10.4 mph - 0.00 in Rain Light Rain
10:21 AM 59.0 °F 57.0 °F 93% 29.97 in 2.5 mi ENE 11.5 mph - 0.00 in   Overcast
10:26 AM 60.1 °F 57.0 °F 90% 29.97 in 3.0 mi ENE 10.4 mph - 0.00 in   Overcast
10:56 AM 60.1 °F 57.0 °F 90% 29.98 in 9.0 mi East 13.8 mph - 0.00 in   Overcast
11:27 AM 61.0 °F 57.9 °F 90% 29.98 in 1.8 mi ENE 11.5 mph - N/A   Overcast
11:37 AM 61.0 °F 57.9 °F 90% 29.98 in 2.0 mi ENE 11.5 mph - N/A   Overcast
11:56 AM 61.0 °F 57.9 °F 90% 29.98 in 5.0 mi ENE 11.5 mph - N/A   Overcast
12:56 PM 62.1 °F 59.0 °F 90% 29.97 in 6.0 mi ENE 11.5 mph - N/A   Overcast
1:56 PM 62.1 °F 59.0 °F 90% 29.97 in 7.0 mi ENE 12.7 mph - N/A   Overcast
2:53 PM 62.6 °F 59.0 °F 88% 29.96 in 2.5 mi NE 12.7 mph - N/A   Overcast
2:56 PM 62.1 °F 59.0 °F 90% 29.96 in 2.0 mi ENE 11.5 mph - N/A   Overcast
3:07 PM 62.1 °F 59.0 °F 90% 29.96 in 1.8 mi ENE 13.8 mph - N/A   Overcast
3:12 PM 62.1 °F 59.0 °F 90% 29.96 in 2.0 mi ENE 12.7 mph - N/A   Overcast
3:43 PM 60.1 °F 57.9 °F 93% 29.96 in 4.0 mi ENE 12.7 mph - N/A   Overcast
3:56 PM 60.1 °F 57.0 °F 90% 29.96 in 3.0 mi NE 13.8 mph - N/A   Overcast
4:56 PM 60.1 °F 55.9 °F 86% 29.97 in 6.0 mi ENE 11.5 mph - N/A   Overcast
5:28 PM 60.1 °F 55.0 °F 83% 29.96 in 10.0 mi East 15.0 mph - N/A   Overcast
5:45 PM 59.0 °F 55.0 °F 87% 29.98 in 10.0 mi ENE 11.5 mph - N/A   Overcast
5:56 PM 59.0 °F 55.0 °F 87% 29.99 in 10.0 mi ENE 12.7 mph - N/A   Overcast
6:56 PM 57.9 °F 55.0 °F 90% 30.00 in 10.0 mi ENE 16.1 mph - N/A   Overcast
7:41 PM 57.9 °F 55.0 °F 90% 30.00 in 5.0 mi ENE 12.7 mph - N/A   Overcast
7:52 PM 57.2 °F 55.4 °F 94% 30.01 in 6.0 mi NE 10.4 mph - N/A   Overcast
7:56 PM 57.9 °F 54.0 °F 87% 30.01 in 8.0 mi NE 9.2 mph - N/A   Overcast
8:51 PM 57.2 °F 53.6 °F 88% 30.02 in 10.0 mi NE 11.5 mph - 0.00 in Rain Light Rain
8:56 PM 57.0 °F 53.1 °F 87% 30.03 in 10.0 mi NE 15.0 mph - 0.00 in Rain Light Rain
9:56 PM 57.0 °F 53.1 °F 87% 30.05 in 10.0 mi ENE 15.0 mph 24.2 mph 0.00 in   Overcast
10:10 PM 57.0 °F 53.1 °F 87% 30.05 in 10.0 mi ENE 13.8 mph - N/A Thunderstorm Thunderstorm
10:41 PM 57.0 °F 53.1 °F 87% 30.07 in 10.0 mi ENE 10.4 mph - 0.00 in Rain Light Rain
10:56 PM 55.9 °F 53.1 °F 90% 30.07 in 8.0 mi NE 5.8 mph - 0.00 in Rain Light Rain
11:06 PM 55.9 °F 53.1 °F 90% 30.07 in 6.0 mi NE 5.8 mph - 0.00 in   Overcast
11:56 PM 54.0 °F 52.0 °F 93% 30.08 in 3.0 mi ENE 10.4 mph - 0.01 in Rain Light Rain